Regional Weather Roundup
Issued by NWS

Home | Current Version | Previous Version | Text Only | Print | Product List | Glossary Off
Versions: 1 2 3 4 5 6 7 8 9 10 11 12 13 14 15 16 17 18 19 20 21 22 23 24 25 26 27 28 29 30 31 32 33 34 35 36 37 38 39 40 41 42 43 44 45 46 47 48 49 50

000
ASUS43 KTOP 190059
RWRKS

WEATHER ROUNDUP FOR KANSAS
NATIONAL WEATHER SERVICE GOODLAND KS
800 PM CDT SAT APR 18 2015

NOTE:  "FAIR" INDICATES FEW OR NO CLOUDS BELOW 12,000 FEET WITH NO
SIGNIFICANT WEATHER AND/OR OBSTRUCTIONS TO VISIBILITY.

KSZ001>006-013>018-027>032-041>047-190200-
NORTHWEST KANSAS

CITY           SKY/WX    TMP DP  RH WIND       PRES   REMARKS
GOODLAND       PTCLDY    51  44  77 NW12      29.80R
HAYS           CLOUDY    55  45  67 E9        29.76R
HILL CITY      CLOUDY    56  47  71 E13       29.78R
RUSSELL        CLOUDY    54  48  80 SE16      29.74R
$$

KSZ061>065-074>080-084>089-190200-
SOUTHWEST KANSAS

CITY           SKY/WX    TMP DP  RH WIND       PRES   REMARKS
DODGE CITY     MOCLDY    59  37  44 W20G30    29.76R HAZE
ELKHART          N/A    N/A N/A N/A MISG        N/A
GARDEN CITY    MOCLDY    55  39  54 W6        29.76F
GREAT BEND     CLOUDY    54  46  76 E9        29.74F
LIBERAL        CLEAR     61  36  39 W10       29.76F
$$

KSZ066>073-081>083-090>101-190200-
SOUTHEAST KANSAS

CITY           SKY/WX    TMP DP  RH WIND       PRES   REMARKS
CHANUTE        CLEAR     64  59  83 E10       29.80F
COFFEYVILLE    CLEAR     66  60  81 E5        29.79F
HUTCHINSON     LGT RAIN  54  49  83 E14G20    29.80F
MEDICINE LODGE   N/A     61  50  67 VRB7      29.73F
NEWTON         CLOUDY    54  48  82 N15G24    29.86R THUNDER
PARSONS        CLEAR     67  61  81 VRB3      29.81F
WICHITA INTL   HAIL      54  50  86 N21G28    29.81R FOG
WICHITA JABRA  CLOUDY    55  49  80 NW21G31   29.82R THUNDER
WICHITA MCCONL CLOUDY    57  50  77 NW21G31   29.83R THUNDER
WINFIELD       MOCLDY    69  58  67 E7        29.76F
$$

KSZ007>012-019>026-033>040-048>060-102>105-190200-
NORTHEAST KANSAS

CITY           SKY/WX    TMP DP  RH WIND       PRES   REMARKS
CONCORDIA      RAIN      56  54  93 CALM      29.84S FOG
EMPORIA        CLOUDY    64  58  80 E6        29.81R
LAWRENCE       MOCLDY    61  58  90 SE5       29.83S
MANHATTAN      CLOUDY    62  51  67 W9        29.83R
OLATHE IND     MOCLDY    62  58  86 SE7       29.84F
OLATHE EXE     MOCLDY    61  58  90 SE8       29.83F
SALINA         LGT RAIN  56  50  80 W8        29.85F
TOPEKA BILLARD PTCLDY    64  57  78 E7        29.83S
TOPEKA FORBES  PTCLDY    65  58  78 E7        29.82S
$$


USA.gov is the U.S. government's official web portal to all federal, state and local government web resources and services.